Regional Weather Roundup
Issued by NWS

Home | Current Version | Previous Version | Graphics & Text | Print | Product List | Glossary On
Versions: 1 2 3 4 5 6 7 8 9 10 11 12 13 14 15 16 17 18 19 20 21 22 23 24 25 26 27 28 29 30 31 32 33 34 35 36 37 38 39 40 41 42 43 44 45 46 47 48 49 50
000
ASUS44 KMEG 051710
RWRTN
TENNESSEE HOURLY STATE WEATHER ROUNDUP
NATIONAL WEATHER SERVICE MEMPHIS TN
1200 PM CDT TUE MAY 05 2015

TNZ002-004-019-021-049-052-054-088>092-051800-
WEST TENNESSEE

CITY           SKY/WX    TMP DP  RH WIND       PRES   REMARKS
MEMPHIS INTL   MOSUNNY   83  57  41 SE12G18   30.23F
NWS MEMPHIS      N/A     83 N/A N/A MISG        N/A
JACKSON        MOSUNNY   80  56  43 CALM      30.25F
DYERSBURG      MOSUNNY   82  54  36 S5        30.24F
PARIS          MOSUNNY   81  55  41 SW10      30.26F
LEXINGTON      SUNNY     81  55  41 VRB6      30.26F
$$

TNZ008-025-027-028-033-062-065-066-051800-
NORTH MIDDLE TENNESSEE

CITY           SKY/WX    TMP DP  RH WIND       PRES   REMARKS
NASHVILLE      MOSUNNY   83  53  35 S9        30.29F
CLARKSVILLE    SUNNY     80  55  42 SW8       30.27F
SMYRNA         MOSUNNY   82  55  39 SW6       30.29F
COOKEVILLE     SUNNY     81  55  41 CALM      30.30F
CROSSVILLE     PTSUNNY   76  49  38 CALM      30.34F
$$

TNZ061-075-076-078-094-096-097-051800-
SOUTH MIDDLE TENNESSEE

CITY           SKY/WX    TMP DP  RH WIND       PRES   REMARKS
FAYETTEVILLE     N/A     79  52  38 VRB5      30.30F
TULLAHOMA      SUNNY     79  52  38 VRB5      30.32F
WINCHESTER     SUNNY     79  54  41 CALM      30.30F
MCMINNVILLE    SUNNY     81  55  41 VRB3      30.31F
COLUMBIA       SUNNY     81  57  44 CALM      30.27F
SHELBYVILLE    MOSUNNY   81  57  44 VRB3      30.31F
$$

TNZ017-018-042-046-047-051800-
NORTHEAST TENNESSEE

CITY           SKY/WX    TMP DP  RH WIND       PRES   REMARKS
TRI CITIES     MOSUNNY   78  53  41 CALM      30.34F
ELIZABETHTON   SUNNY     77  52  41 W7        30.33F
$$

TNZ012-013-036-069-073-074-051800-
CENTRAL EAST TENNESSEE

CITY           SKY/WX    TMP DP  RH WIND       PRES   REMARKS
KNOXVILLE      MOSUNNY   77  53  43 W6        30.31F
OAK RIDGE      SUNNY     79  53  40 CALM      30.32F
GATLINBURG     SUNNY     79  52  38 NE3       30.31F
MORRISTOWN     SUNNY     77  54  44 CALM      30.34F
$$

TNZ083-085-099-051800-
SOUTHEAST TENNESSEE

CITY           SKY/WX    TMP DP  RH WIND       PRES   REMARKS
CHATTANOOGA    MOSUNNY   78  53  41 VRB3      30.31F
$$

SKY/WX REPORTED AS FAIR MEANS FEW OR NO CLOUDS BELOW
12 THOUSAND FEET.



USA.gov is the U.S. government's official web portal to all federal, state and local government web resources and services.